SUPERVIEW NEO-2 O1 (53128 NORAD) Tracking and Keplerian Element Data

This shows tracking and keplerian element data for the satellite.

Feedback or suggestion? Click here.




ElementValue
Catalog53128
NameSUPERVIEW NEO-2 O1
Epoch Orbit1116
Epoch Day270.19625634
Epoch Year2022
RAAN277.1953
Inclination97.3873
Eccentricity0.0013666
Argument of Perigee18.1995
Mean Anonmoly112.2179
Mean Motion15.25096215
Decay Rate5.123E-05
L11 53128U 22082A 22270.19625634 .00005123 00000+0 20709-3 0 9993
L22 53128 97.3873 277.1953 0013666 18.1995 112.2179 15.25096215 11165

Live tracking and technical data element details for SUPERVIEW NEO-2 O1 (NORAD 53128). SUPERVIEW NEO-2 O1 can be tracked NOW for your location showing map with azimuth and elevation plus other details from your city location.

Track the satellite on the map from your city or location and see movement details for azimuth, elevation, latitude, longitude, range, height, and movement on the map or in text.







IsCatalogInMostPopularTable: catalog: 53128, numindb: 7
Update: records affected: 1



GetName: 53128 SUPERVIEW NEO-2 O1

Hit Count: updated at: Wed, 28 Sep 2022 22:12:44 GMT